Regional Weather Roundup
Issued by NWS Goodland, KS

Home | Current Version | Previous Version | Graphics & Text | Print | Product List | Glossary On
Versions: 1 2 3 4 5 6 7 8 9 10 11 12 13 14 15 16 17 18 19 20 21 22 23 24 25 26 27 28 29 30 31 32 33 34 35 36 37 38 39 40 41 42 43 44 45 46 47 48 49 50
000
ASUS43 KGLD 280308
RWRGLD

GOODLAND FORECAST AREA HOURLY WEATHER ROUNDUP
NATIONAL WEATHER SERVICE GOODLAND KS
900 PM MDT MON APR 27 2015

...OFFICIAL OBSERVATIONS...

CITY           SKY/WX    TMP DP  RH WIND       PRES   REMARKS
GOODLAND KS    PTCLDY    46  34  62 NE5       30.24R
HILL CITY KS   PTCLDY    44  37  76 NE7       30.19R
IMPERIAL NEB   MOCLDY    51  32  48 CALM      30.23R
MCCOOK NEB     PTCLDY    54  35  48 N6        30.20R
AKRON CO       MOCLDY    47  38  71 N3        30.28R
BURLINGTON CO  PTCLDY    46  33  60 N8        30.25R
LIMON CO       CLOUDY    44  39  82 NW10      30.30R
$$

...UNOFFICIAL OBSERVATIONS...

CITY           SKY/WX    TMP DP  RH WIND       PRES   REMARKS
COLBY KS       CLEAR     50  36  57 N5        30.23R
GOVE KS          N/A     51  32  48 MISG        N/A
LENORA KS        N/A     53  32  45 MISG        N/A
NORTON KS      CLEAR     54  34  47 CALM      30.19
SHARON SPRINGS   N/A     44  37  77 N6          N/A
TRIBUNE KS     PTCLDY    46  39  76 N8        30.23R
KIT CARSON CO    N/A     45  35  68 MISG        N/A
YUMA CO          N/A     45  38  76 CALM        N/A
$$


USA.gov is the U.S. government's official web portal to all federal, state and local government web resources and services.